www.pogodaiklimat.ru

Погода и климат >> Архив погоды >> Россия >> Саратовская область >> Аткарск


ПОГОДА в Аткарске

  • Прогноз погоды в Аткарске
  • Монитор погоды в Аткарске

АРХИВ ПОГОДЫ в Аткарске

Время (UTC), дата Ветер
(напр.,м/с)
 
Видим.   Явления Облачность Т
(С)
Тd
(С)
f
(%)
Тe
(С)
Тes
(С)
Комфортность P
(гПа)
Po
(гПа)
Тmin
(С)
Tmax
(С)
R
(мм)
R24
(мм)
S
(см)
18 12.06 С 2 10 км ясно +24.9 +14.5 52 +27 +27 жарко 1012.7 989.4
21 12.06 СВ 3 10 км 3/0
[Ac trans]
+23.1 +13.9 56 +27 +27 душно 1013.3 989.9
00 13.06 СВ 3 10 км 3/3 600 м
[Sc]
+19.5 +13.2 67 +21 +21 комфорт 1013.9 990.2
03 13.06 СВ 4-10
{10}
10 км 8/0
[Ac trans]
+18.3 +12.5 69 +19 +19 1016.0 992.1 +17.8
06 13.06 СВ 7-10
{11}
10 км 9/0
[Ac trans]
+19.8 +12.3 62 +21 +22 комфорт 1017.9 994.1
09 13.06 СВ 7-11
{12}
20 км 3/3 1000 м
[Cu hum]
+21.8 +9.6 46 +23 +27 комфорт 1018.8 995.1
12 13.06 С 6-10
{12}
20 км ясно +22.4 +3.6 29 +22 +27 комфорт 1019.1 995.4
15 13.06 С 6-10
{10}
20 км ясно +20.2 +1.2 28 +20 +21 1019.9 996.0 +23.0
18 13.06 С 2
{10}
10 км ясно +13.1 +3.4 52 +13 +13 1021.7 997.2
21 13.06 СВ 3 10 км ясно +9.9 +2.8 61 +8 +8 1023.0 998.2
00 14.06 СВ 2 10 км ясно +7.0 +2.3 72 +5 +5 1024.1 999.0
03 14.06 С 1 10 км 3/0
[Ci fib]
+11.3 +3.6 59 +11 +14 1024.1 999.4 +6.6
06 14.06 В 2 20 км 6/0
[Ci fib]
+17.1 +1.3 34 +17 +27 1022.9 998.7
09 14.06 ЮВ 2 20 км 3/0
[Ci fib]
+20.9 +1.9 28 +22 +38 комфорт 1020.7 996.9
12 14.06 З 4 20 км 4/0
[Ci fib]
+23.1 +1.3 24 +22 +29 комфорт 1017.9 994.3
15 14.06 З 4 20 км 4/0
[Ci fib]
+23.1 +2.7 26 +23 +24 комфорт 1015.3 991.8 +23.6
18 14.06 З 2 10 км 10/0
[Ac As Ci fib]
+20.6 +3.7 33 +22 +22 комфорт 1013.7 990.0
21 14.06 СЗ 1 10 км 10/10 1500 м
[Sc]
+19.2 +5.0 39 +21 +21 комфорт 1013.5 989.7
00 15.06 Ю 1 10 км {дождь} 8/0
[Ac As]
+15.0 +13.1 88 +15 +15 1012.0 988.0
03 15.06 Ю 2 10 км 10/4 1000 м
[Sc Ac As Ci sp]
+15.6 +11.8 78 +16 +16 1011.2 987.2 +14.6 0.3
06 15.06 СВ 2 10 км 10/0
[Ac und]
+18.2 +11.9 67 +19 +22 1011.6 987.9
09 15.06 В 2 10 км 8/4 600 м
[Sc Ac trans]
+20.5 +11.5 56 +23 +29 комфорт 1011.8 988.2
12 15.06 СВ 3 10 км 8/4 600 м
[Sc Ac trans]
+20.3 +12.6 61 +23 +26 комфорт 1011.5 987.9
15 15.06 В 2 10 км 8/4 600 м
[Sc Ac trans]
+19.6 +11.7 60 +22 +22 комфорт 1011.7 988.0 +21.1
18 15.06 ЮВ 2 10 км 3/0
[Ac trans]
+16.6 +11.9 74 +17 +17 1011.9 988.0
21 15.06 ЮВ 1 10 км 8/0
[Ac trans]
+15.0 +11.5 80 +16 +16 1011.5 987.5
00 16.06 ЮВ 2 10 км 6/0
[Ac trans]
+12.8 +11.0 89 +12 +12 1011.0 986.8
03 16.06 ЮВ 2 10 км 4/0
[Ac trans]
+15.5 +12.1 80 +15 +17 1010.8 986.8 +12.3
06 16.06 ЮВ 2 10 км 4/0
[Ac trans]
+20.1 +12.7 62 +23 +31 комфорт 1010.4 986.9
09 16.06 СЗ 3 20 км 8/6 600 м
[Cu hum Ac trans]
+22.7 +10.6 46 +25 +29 комфорт 1009.8 986.4
12 16.06 СЗ 3 20 км 9/6 600 м
[Cu hum Ac trans]
+23.1 +8.1 38 +24 +26 комфорт 1009.7 986.3
15 16.06 С 4 20 км 6/5 600 м
[Sc diur, vesp Ci fib]
+22.8 +7.7 38 +24 +25 комфорт 1009.7 986.3 +24.0
18 16.06 С 2 10 км ясно +17.5 +8.2 54 +18 +18 1011.1 987.3
21 16.06 СВ 2 10 км ясно +14.4 +8.2 66 +14 +14 1012.2 988.1
00 17.06 С 1 10 км ясно +11.1 +7.7 80 +11 +11 1013.2 988.7
03 17.06 СВ 2 10 км ясно +14.4 +9.1 70 +14 +16 1013.6 989.5 +10.2
06 17.06 СВ 2 20 км ясно +20.5 +8.5 46 +22 +34 комфорт 1013.9 990.2
09 17.06 В 3 20 км ясно +23.4 +7.3 36 +24 +39 комфорт 1013.3 989.9
12 17.06 СВ 3 20 км ясно +26.0 +7.1 30 +26 +35 жарко 1012.2 989.0
15 17.06 СЗ 3 20 км ясно +25.3 +7.1 31 +25 +27 комфорт 1011.5 988.3 +26.1
18 17.06 СЗ 1 10 км 8/0
[Ci sp]
+19.8 +8.6 48 +22 +22 комфорт 1012.4 988.7
21 17.06 СЗ 1 10 км 8/0
[Ac trans Ci sp]
+17.6 +9.3 58 +19 +19 1012.7 988.9
00 18.06 СЗ 1 10 км 6/0
[Ac trans]
+16.3 +9.1 62 +17 +17 1012.8 988.8
03 18.06 СЗ 1 10 км 4/0
[Ci sp]
+18.1 +10.6 62 +19 +22 1013.0 989.2 +15.6
06 18.06 СЗ 3 20 км 3/0
[Ci fib]
+24.1 +8.8 38 +25 +34 комфорт 1012.5 989.1
09 18.06 С 4 20 км 9/6 1000 м
[Cu med, cong Ac trans Ci fib]
+26.6 +9.5 34 +27 +30 жарко 1011.7 988.6
12 18.06 СЗ 3 20 км 8/4 1000 м
[Cu med, cong Ac trans Ci fib]
+28.0 +9.2 31 +28 +32 жарко 1010.3 987.3
15 18.06 СЗ 4 20 км 8/6
[Sc Ci sp]
+27.9 +8.3 29 +28 +28 жарко 1009.6 986.6 +28.7
18 18.06 СЗ 2 10 км 9/6 1000 м
[Sc Ac As]
+24.5 +10.0 40 +25 +25 комфорт 1010.2 986.9
21 18.06 СЗ 3 10 км 6/3 1000 м
[Sc Ac trans Ci sp]
+19.9 +11.9 60 +22 +22 комфорт 1010.5 986.9
00 19.06 СЗ 3 10 км 6/0
[Ac trans Ci sp]
+17.8 +13.7 77 +18 +18 1010.7 986.9
03 19.06 СЗ 3 10 км ясно +18.9 +14.7 77 +20 +22 1011.2 987.5 +16.6
06 19.06 С 4 10 км ясно +24.1 +14.5 55 +27 +34 жарко 1011.1 987.8
09 19.06 С 5
{10}
20 км 6/6 600 м
[Cu med, cong]
+26.5 +10.3 36 +27 +31 жарко 1010.8 987.7
12 19.06 СЗ 4 20 км 8/5 600 м
[Cu med, cong Ci fib]
+28.6 +10.0 31 +29 +32 жарко 1010.3 987.4

 

Местоположение метеостанции Аткарск (Саратовская область, Россия): широта 51.87 долгота 45.03 высота над уровнем моря 208 м.

В архиве по умолчанию представлена погода в Аткарске за последнюю неделю. Архивные данные за месяц целиком и за предыдущие месяцы, начиная с января 2011 года, Вы можете получить, выбрав интересующий диапазон дат из раскрывающегося списка и нажав кнопку "Ввод!".


*Определитесь, кто Вы:
робот инопланетянин человек

Внимание! Время в таблицах - всемирное. Для получения местного времени необходимо прибавить поправку, которая равна 4 ч.

Смотрите также архив погоды в соседних городах и на ближайших метеорологических станциях:

Погода в Октябрьском Городке (Саратовская область, Россия) (39 км)
Погода в Петровске (Саратовская область, Россия) (52 км)
Погода в Калининске (Саратовская область, Россия) (57 км)
Погода в Саратове ЮВ (Саратовская область, Россия) (75 км)
Погода в Саратове (Саратовская область, Россия) (77 км)
Погода в Сплавнухе (Саратовская область, Россия) (92 км)
Погода в Колышлее (Пензенская область, Россия) (93 км)
Погода в Ртищево (Саратовская область, Россия) (95 км)
Погода в Росташах (Саратовская область, Россия) (100 км)
Погода в Карабулаке (Саратовская область, Россия) (105 км)

Пояснения к столбцам:

Ветер - указаны скорость ветра в м/с - средняя за 10 мин, порывы в срок и между сроками (в фигурных скобках) и направление, откуда дует ветер: С - северный, СВ - северо-восточный, В - восточный, ЮВ - юго-восточный, Ю - южный, ЮЗ - юго-западный, З - западный, СЗ - северо-западный.
Видимость - горизонтальная дальность видимости в метрах или километрах. При видимости от 1 до 10 км при отсутствии осадков обычно наблюдается дымка, при ухудшении видимости до 1 км и менее - туман. В сухую погоду видимость может ухудшаться дымом, пылью или мглою.
Явления - указаны атмосферные явления, наблюдавшиеся в срок или в последний час перед сроком; фигурными скобками обозначены явления, наблюдавшиеся между сроками (за 1-3 часа до срока); квадратными скобками обозначены град или гололедные отложения с указанием их диаметра в мм.
Облачность - указаны через наклонную черту общая и нижняя облачность в баллах и высота нижней границы облаков в метрах; квадратными скобками обозначены формы облаков: Ci - перистые, Cs - перисто-слоистые, Cc - перисто-кучевые, Ac - высококучевые, As - высокослоистые, Sc - слоисто-кучевые, Ns - слоисто-дождевые, Cu - кучевые, Cb - кучево-дождевые. Подробнее классификацию облаков см. в Атласе облаков (PDF).
T - Температура воздуха - температура, измеренная на высоте 2 м над землей.
Td - Температура точки росы - температура, при понижении до которой содержащийся в воздухе водяной пар достигнет насыщения.
f - Относительная влажность воздуха - влажноcть воздуха, измеренная на высоте 2 м над землей.
Te - Эффективная температура - температура, которую ощущает одетый по сезону человек в тени. Характеристика душности погоды. При расчете учитывается влияние влажности воздуха и скорости ветра на теплоощущения человека.
Tes - Эффективная температура на солнце - температура, которую ощущает человек, с поправкой на солнечный нагрев. Характеристика знойности погоды. Зависит от высоты солнца над горизонтом, облачности и скорости ветра. Ночью, в пасмурную погоду, а также при ветре 12 м/с и более поправка равна нулю.
P - Атмосферное давление - приведенное к уровню моря атмосферное давление.
Po - Атмосферное давление - измеренное на уровне метеостанции атмосферное давление.
Tmin - Минимальная температура - минимум температуры воздуха на высоте 2 м над землей.
Tmax - Максимальная температура - максимум температуры воздуха на высоте 2 м над землей.
R - Количество осадков - Количество выпавших осадков за период времени, мм. При наведении курсора мыши на число - период времени, за который выпало указанное количество осадков.
R24 - Количество осадков - Количество выпавших осадков за 24 часа, мм.
S - Снежный покров - Высота снежного покрова, см. При наведении курсора мыши на число - состояние снежного покрова и степень покрытия местности в баллах.